sat.trackr.live / text

‹ back to catalog

STARLINK-1255

NORAD 45399 · 2020-019AR

PAYLOAD ACTIVE UNKNOWN

§ Identity

Operator
Country
US
Launch date
2020-03-18
Launch site
AFETR
Launch vehicle
Mass (kg)
RCS (m²)

Purposes: comms

External: N2YO · Heavens-Above · Gunter

§ Orbital elements

Epoch: 2026-05-25T02:59:10.538592Z

Period
92.07 min
Inclination
53.0346°
Eccentricity
0.0006038
Mean motion
15.64092957 rev/d
Perigee alt
371.8 km
Apogee alt
379.9 km
Semi-major
6,754.0 km
B*
9.3597e-4
RAAN
91.1154°
Arg perigee
68.5439°
Mean anomaly
291.6218°
Rev number
34,235

§ Raw data

STARLINK-12551 45399U 20019AR  26145.12442753  .00090866  00000+0  93597-3 0  99922 45399  53.0346  91.1154 0006038  68.5439 291.6218 15.64092957342350

JSON: /api/v1/satellites/45399 · /tle

For live sub-satellite position, see the globe view (requires WebGL).

§ Visibility from observer

Set your observer location to see the next 7 days of passes ≥ 10°. The values pass through the URL so the page stays shareable.

No JS? Fill the form by hand. The geolocation button needs JavaScript.